sat.trackr.live / text

‹ back to catalog

STARLINK-31497

NORAD 60592 · 2024-150K

PAYLOAD ACTIVE UNKNOWN

§ Identity

Operator
Country
US
Launch date
2024-08-20
Launch site
AFETR
Launch vehicle
Mass (kg)
RCS (m²)

Purposes: comms

External: N2YO · Heavens-Above · Gunter

§ Orbital elements

Epoch: 2026-05-25T04:16:17.954976Z

Period
93.85 min
Inclination
53.1605°
Eccentricity
0.0001133
Mean motion
15.34390604 rev/d
Perigee alt
462.0 km
Apogee alt
463.5 km
Semi-major
6,840.9 km
B*
2.4876e-5
RAAN
310.9273°
Arg perigee
92.5968°
Mean anomaly
267.5164°
Rev number
9,976

§ Raw data

STARLINK-314971 60592U 24150K   26145.17798559  .00000464  00000+0  24876-4 0  99972 60592  53.1605 310.9273 0001133  92.5968 267.5164 15.34390604 99763

JSON: /api/v1/satellites/60592 · /tle

For live sub-satellite position, see the globe view (requires WebGL).

§ Visibility from observer

Set your observer location to see the next 7 days of passes ≥ 10°. The values pass through the URL so the page stays shareable.

No JS? Fill the form by hand. The geolocation button needs JavaScript.